McCall, ID

2:57 PM MDT on March 24, 2017 (GMT -0600)
McCall

Weather History for KMYL - October, 2010

Change the Weather History Date:

Thursday, October 7, 2010

  Actual Average Record
Temperature  
Mean Temperature 48 °F 43 °F  
Max Temperature 58 °F 59 °F 81 °F (1979)
Min Temperature 37 °F 26 °F 16 °F (1974)
Degree Days  
Heating Degree Days 17 22  
Month to date heating degree days 67 149  
Since 1 July heating degree days 678 914  
Cooling Degree Days 0 0  
Month to date cooling degree days 0 0  
Year to date cooling degree days 41 25  
Moisture  
Dew Point 43 °F    
Average Humidity 75    
Maximum Humidity 100    
Minimum Humidity 50    
Precipitation  
Precipitation 0.08 in 0.03 in 1.62 in (1975)
Month to date precipitation 0.33 0.23  
Year to date precipitation 16.36 14.15  
Sea Level Pressure  
Sea Level Pressure 30.03 in    
Wind  
Wind Speed 4 mph (South)    
Max Wind Speed 18 mph    
Max Gust Speed 23 mph    
Visibility 8 miles    
Events Fog , Rain , Thunderstorm    
T = Trace of Precipitation, MM = Missing Value Source: NWS Daily Summary

Daily Weather History Graph

Daily Weather History Graph

Search for Another Location

Airport or City:

Trip Planner

Search our weather history database for the weather conditions in past years. The results will help you decide how hot, cold, wet, or windy it might be!

Date:

Astronomy

Oct. 07, 2010 Rise Set
Actual Time 7:49 AM MDT 7:13 PM MDT
Civil Twilight 7:20 AM MDT 7:42 PM MDT
Nautical Twilight 6:46 AM MDT 8:16 PM MDT
Astronomical Twilight 6:12 AM MDT 8:50 PM MDT
Moon 7:49 AM MDT (10/7) 6:48 PM MDT (10/7)
Length of Visible Light 12h 22m
Length of Day
11h 23m
Waning Crescent, 0% of the Moon is Illuminated
Oct 7
Waning Crescent
Oct 7
New
Oct 14
First Quarter
Oct 22
Full
Oct 30
Last Quarter

Hourly Weather History & Observations

Time (MDT) Temp. Windchill Dew Point Humidity Pressure Visibility Wind Dir Wind Speed Gust Speed Precip Events Conditions
12:51 AM 45.0 °F - 42.1 °F 90% 29.96 in 10.0 mi Calm Calm - N/A   Clear
1:51 AM 46.9 °F - 43.0 °F 86% 30.00 in 10.0 mi South 10.4 mph 18.4 mph N/A   Overcast
2:51 AM 50.0 °F - 46.0 °F 86% 30.00 in 7.0 mi ESE 3.5 mph - 0.05 in Rain Light Rain
3:51 AM 48.9 °F - 46.9 °F 93% 29.99 in 10.0 mi North 4.6 mph - 0.02 in   Overcast
4:51 AM 48.9 °F - 46.9 °F 93% 29.97 in 10.0 mi Calm Calm - N/A   Overcast
5:51 AM 48.0 °F - 46.0 °F 93% 29.97 in 10.0 mi SSE 3.5 mph - 0.01 in Rain Light Rain
6:51 AM 46.9 °F - 46.0 °F 97% 29.98 in 10.0 mi ENE 3.5 mph - 0.00 in   Scattered Clouds
7:36 AM 44.6 °F - 44.6 °F 100% 30.04 in 7.0 mi Calm Calm - N/A   Partly Cloudy
7:46 AM 44.6 °F 43.1 °F 44.6 °F 100% 30.05 in 0.8 mi West 3.5 mph - N/A   Mist
7:51 AM 44.1 °F - 43.0 °F 96% 29.99 in 0.2 mi Calm Calm - N/A Fog Fog
8:51 AM 45.0 °F - 45.0 °F 100% 30.02 in 0.2 mi Calm Calm - N/A Fog Fog
9:51 AM 46.9 °F - 46.0 °F 97% 30.04 in 0.2 mi Calm Calm - N/A Fog Fog
10:00 AM 48.2 °F - 46.4 °F 93% 30.07 in 1.2 mi NNE 3.5 mph - N/A   Overcast
10:07 AM 46.4 °F - 46.4 °F 100% 30.07 in 3.0 mi Calm Calm - N/A   Overcast
10:51 AM 48.0 °F - 48.0 °F 100% 30.04 in 10.0 mi WNW 3.5 mph - N/A   Mostly Cloudy
11:00 AM 48.2 °F - 46.4 °F 93% 30.07 in 10.0 mi Variable 3.5 mph - N/A   Mostly Cloudy
11:10 AM 50.0 °F - 46.4 °F 87% 30.08 in 10.0 mi SW 3.5 mph - N/A   Scattered Clouds
11:51 AM 53.1 °F - 45.0 °F 74% 30.02 in 10.0 mi SSE 5.8 mph - N/A   Partly Cloudy
12:51 PM 55.9 °F - 42.1 °F 60% 30.02 in 10.0 mi South 9.2 mph - N/A   Scattered Clouds
12:58 PM 55.4 °F - 42.8 °F 63% 30.06 in 10.0 mi South 8.1 mph - N/A Thunderstorm Mostly Cloudy
1:06 PM 57.2 °F - 42.8 °F 59% 30.06 in 1.8 mi South 11.5 mph - N/A Thunderstorm Haze
1:20 PM 57.2 °F - 42.8 °F 59% 30.06 in 10.0 mi SSE 11.5 mph - N/A Thunderstorm Mostly Cloudy
1:33 PM 57.2 °F - 41.0 °F 55% 30.06 in 10.0 mi SSW 15.0 mph 23.0 mph N/A   Scattered Clouds
1:51 PM 55.0 °F - 41.0 °F 59% 30.01 in 10.0 mi SSW 3.5 mph - 0.00 in Rain Light Rain
2:51 PM 57.0 °F - 43.0 °F 59% 29.98 in 10.0 mi West 10.4 mph - 0.00 in   Mostly Cloudy
3:35 PM 55.4 °F - 42.8 °F 63% 30.04 in 10.0 mi West 11.5 mph - N/A Thunderstorm Scattered Clouds
3:51 PM 54.0 °F - 43.0 °F 66% 30.00 in 10.0 mi SSW 9.2 mph - N/A   Mostly Cloudy
4:13 PM 51.8 °F - 37.4 °F 58% 30.07 in 10.0 mi SSW 6.9 mph 20.7 mph 0.00 in Thunderstorm Thunderstorm
4:41 PM 50.0 °F - 37.4 °F 62% 30.07 in 10.0 mi ESE 9.2 mph - 0.00 in   Overcast
4:51 PM 51.1 °F - 37.0 °F 59% 30.02 in 10.0 mi SSW 3.5 mph - 0.00 in   Overcast
5:51 PM 54.0 °F - 36.0 °F 51% 29.99 in 10.0 mi Calm Calm - N/A   Clear
6:51 PM 51.1 °F - 37.0 °F 59% 30.00 in 10.0 mi NNW 5.8 mph - N/A   Clear
7:51 PM 48.9 °F - 39.0 °F 69% 30.03 in 10.0 mi NNE 3.5 mph - N/A   Scattered Clouds
8:51 PM 46.9 °F - 42.1 °F 83% 30.06 in 10.0 mi NNE 5.8 mph - N/A   Clear
9:51 PM 46.0 °F - 41.0 °F 83% 30.06 in 10.0 mi Calm Calm - N/A   Clear
10:51 PM 41.0 °F - 37.9 °F 89% 30.07 in 10.0 mi Calm Calm - N/A   Clear
11:51 PM 39.0 °F - 36.0 °F 89% 30.07 in 10.0 mi Calm Calm - N/A   Clear